[[{"header":{"parameterUnit":"m.s-1","parameterCategory":1,"la1":30.2991,"la2":30.254,"lo1":-89.0895,"lo2":-89.0444,"dy":0.0017,"dx":0.0017,"nx":28,"ny":28,"refTime":"2025-02-05T03:00:00:Z","depth":0,"parameterNumber":2,"parameterNumberName":"U-component_of_WINDS"},"data":[0,0,0,0,0,0,0,0,0,0,0,0,0,0,0,0,0,0,0,0,0,0,0,0,0,0,0,0,0,0,0,0,0,0,0,0,0,0,0,0,0,0,0,0,0,0,0,0,0,0,0,0,0,0,0,0,0,0,-1.4543,-1.4544,0,-1.4592,-1.4593,-1.4594,-1.4596,-1.4595,-1.4595,-1.4594,-1.4648,-1.465,-1.4652,0,0,0,0,0,0,0,0,0,0,0,0,0,-1.4454,-1.4455,-1.4543,-1.4544,-1.4544,-1.4592,-1.4593,-1.4594,-1.4596,-1.4595,-1.4594,-1.4594,-1.4647,-1.4649,-1.4652,0,0,0,0,0,0,0,0,0,0,0,0,0,-1.4497,-1.4456,-1.4543,-1.4551,-1.4552,-1.4592,-1.4593,-1.4594,-1.4596,-1.4595,-1.4594,-1.4593,-1.4646,-1.4649,-1.4652,-1.4688,0,0,-1.4661,-1.4662,0,0,0,0,0,0,0,0,-1.4494,-1.45,-1.4549,-1.4551,-1.4552,-1.4587,-1.4581,-1.4626,-1.4596,-1.4579,-1.4594,-1.4593,-1.4628,-1.4633,-1.4644,-1.4691,-1.4693,-1.4661,-1.4663,-1.4665,-1.4665,0,0,0,0,0,0,0,-1.4491,-1.4498,-1.4563,-1.455,-1.4552,-1.4553,-1.4558,-1.459,-1.4608,-1.4581,-1.4581,-1.4587,-1.4629,-1.4641,-1.4645,-1.4694,-1.4661,-1.4664,-1.4666,-1.4667,-1.4773,-1.4774,0,0,0,0,0,0,-1.4486,-1.4496,-1.4561,-1.4564,-1.452,-1.4556,-1.4561,-1.4577,-1.4608,-1.4612,-1.4588,-1.4587,-1.4637,-1.4642,-1.4647,-1.4691,-1.4665,-1.4667,-1.4669,-1.4772,-1.4773,-1.4774,0,0,0,0,0,0,-1.4484,-1.4492,-1.4559,-1.453,-1.4539,-1.4558,-1.4575,-1.4578,-1.459,-1.4613,-1.4617,-1.4596,-1.4636,-1.4643,-1.4678,-1.4693,-1.4669,-1.4671,-1.4771,-1.4772,-1.4774,-1.4779,0,0,0,0,0,0,-1.4482,-1.4491,-1.4505,-1.453,-1.454,-1.4588,-1.4576,-1.458,-1.4595,-1.4594,-1.4622,-1.4626,-1.4636,-1.4673,-1.4681,-1.4697,-1.4674,-1.4769,-1.4771,-1.4773,-1.4778,-1.4781,-1.4784,0,0,0,0,0,-1.4479,-1.4505,-1.4505,-1.4513,-1.4557,-1.4589,-1.4594,-1.4604,-1.4596,-1.461,-1.4625,-1.4625,-1.4691,-1.4677,-1.4685,-1.4702,-1.4768,-1.4771,-1.4773,-1.4777,-1.478,-1.4783,0,0,0,0,0,0,-1.4481,-1.4508,-1.4509,-1.4544,-1.4564,-1.4589,-1.4606,-1.4608,-1.4631,-1.463,-1.4642,-1.4649,-1.4683,-1.4697,-1.4681,-1.4739,-1.4729,-1.4733,-1.4729,-1.4732,-1.4735,-1.473,-1.4676,0,0,0,0,0,-1.4486,-1.4509,-1.4532,-1.456,-1.457,-1.4587,-1.4601,-1.4607,-1.4628,-1.4637,-1.4654,-1.4676,-1.4702,-1.4718,-1.4743,-1.4781,-1.4787,-1.4797,-1.4799,-1.4802,-1.4805,-1.4825,-1.483,-1.4782,-1.4782,-1.4782,0,0,-1.4496,-1.4513,-1.4527,-1.4561,-1.4577,-1.4601,-1.4594,-1.4619,-1.4637,-1.4641,-1.4674,-1.4688,-1.4714,-1.475,-1.4767,-1.4762,-1.482,-1.4805,-1.4806,-1.4808,-1.4828,-1.4833,-1.4837,-1.4784,-1.4783,-1.4783,0,0,-1.4526,-1.4541,-1.4567,-1.4583,-1.4607,-1.4618,-1.4624,-1.4649,-1.4658,-1.4691,-1.4695,-1.4717,-1.4761,-1.4778,-1.4793,-1.4831,-1.4832,-1.4839,-1.4853,-1.4873,-1.4877,-1.488,-1.4893,-1.4897,-1.4842,-1.4842,-1.4842,0,-1.4535,-1.457,-1.458,-1.4605,-1.462,-1.4624,-1.465,-1.4666,-1.4698,-1.4708,-1.4703,-1.4758,-1.4775,-1.4815,-1.4824,-1.4837,-1.4844,-1.4835,-1.4875,-1.4879,-1.4882,-1.4894,-1.4899,-1.4843,-1.4842,-1.4842,-1.4842,0,-1.458,-1.4604,-1.4622,-1.4651,-1.4669,-1.4694,-1.4709,-1.4726,-1.4731,-1.4743,-1.4777,-1.4798,-1.4827,-1.4837,-1.4843,-1.4879,-1.4875,-1.4872,-1.4862,-1.4887,-1.4899,-1.4903,-1.4843,-1.4843,-1.4843,-1.4843,0,0,-1.4611,-1.4646,-1.4652,-1.4665,-1.4692,-1.4712,-1.4739,-1.4766,-1.478,-1.4802,-1.4824,-1.4862,-1.4859,-1.4876,-1.4884,-1.4902,-1.4929,-1.4897,-1.4898,-1.4901,-1.497,-1.497,-1.4976,-1.4931,-1.4932,-1.4933,-1.4967,0,-1.4643,-1.4689,-1.4699,-1.4738,-1.4761,-1.4766,-1.4789,-1.4809,-1.4821,-1.4843,-1.4858,-1.4883,-1.4878,-1.4888,-1.4907,-1.4922,-1.4943,-1.492,-1.4952,-1.4953,-1.4944,-1.4982,-1.4983,-1.5014,-1.4972,-1.4973,-1.4973,0,-1.4686,-1.4708,-1.4749,-1.4773,-1.4783,-1.4803,-1.4829,-1.485,-1.4874,-1.4881,-1.49,-1.4906,-1.4935,-1.4925,-1.4965,-1.4949,-1.4963,-1.4973,-1.4974,-1.4977,-1.4964,-1.4984,-1.5024,-1.5028,-1.4981,-1.498,-1.498,0,-1.4703,-1.4743,-1.4773,-1.4784,-1.4814,-1.4828,-1.4841,-1.4863,-1.4879,-1.4902,-1.4913,-1.494,-1.4954,-1.4976,-1.4989,-1.498,-1.5028,-1.5019,-1.5036,-1.5035,-1.5044,-1.5043,-1.5086,-1.5056,-1.5056,-1.5056,-1.5056,0,-1.4737,-1.4762,-1.4781,-1.4799,-1.4828,-1.484,-1.4868,-1.4882,-1.4901,-1.4923,-1.493,-1.4951,-1.4968,-1.4991,-1.5003,-1.5034,-1.5041,-1.5048,-1.5051,-1.5047,-1.5045,-1.5055,-1.5053,-1.5057,-1.5057,-1.5056,-1.5056,0,-1.476,-1.4774,-1.4807,-1.4832,-1.4839,-1.4859,-1.488,-1.4899,-1.4912,-1.4939,-1.4946,-1.4967,-1.4994,-1.5011,-1.5046,-1.5054,-1.5088,-1.509,-1.5079,-1.508,-1.5096,-1.5094,-1.5145,-1.5152,-1.5118,-1.5119,-1.5119,0,-1.478,-1.4799,-1.4826,-1.484,-1.4853,-1.4877,-1.4892,-1.4906,-1.4922,-1.4951,-1.4966,-1.4994,-1.5016,-1.5061,-1.5079,-1.5107,-1.5109,-1.5125,-1.5113,-1.5108,-1.5108,-1.5106,-1.5108,-1.5127,-1.5127,-1.5127,-1.5127,0,-1.4813,-1.4819,-1.4841,-1.4865,-1.4884,-1.4904,-1.4925,-1.4936,-1.4954,-1.4972,-1.5,-1.5017,-1.5053,-1.5081,-1.511,-1.5125,-1.5129,-1.5131,-1.5137,-1.5132,-1.5124,-1.5128,-1.5084,-1.513,-1.513,-1.5129,-1.5129,-1.5129,-1.4835,-1.4852,-1.4873,-1.4897,-1.4914,-1.4933,-1.4951,-1.4966,-1.4989,-1.5017,-1.5025,-1.5054,-1.5078,-1.5117,-1.5133,-1.5156,-1.5154,-1.5161,-1.5163,-1.5164,-1.5164,-1.5122,-1.5162,-1.5162,-1.5162,-1.5162,-1.5162,0,-1.4867,-1.4881,-1.4903,-1.4931,-1.495,-1.4952,-1.4975,-1.4991,-1.5016,-1.5037,-1.506,-1.5092,-1.5119,-1.514,-1.5168,-1.5183,-1.5186,-1.519,-1.5188,-1.5191,-1.5166,-1.5158,-1.5187,-1.5187,-1.5187,-1.5187,-1.5187,-1.5187,-1.4886,-1.4915,-1.4923,-1.4961,-1.4975,-1.5002,-1.5015,-1.5033,-1.505,-1.5085,-1.5107,-1.512,-1.5141,-1.5171,-1.5196,-1.5202,-1.5212,-1.5215,-1.5221,-1.5196,-1.5193,-1.5191,-1.5183,-1.5218,-1.5218,-1.5245,-1.5245,-1.5245]},{"header":{"parameterUnit":"m.s-1","parameterCategory":1,"la1":30.2991,"la2":30.254,"lo1":-89.0895,"lo2":-89.0444,"dy":0.0017,"dx":0.0017,"nx":28,"ny":28,"refTime":"2025-02-05T03:00:00:Z","depth":0,"parameterNumber":3,"parameterNumberName":"V-component_of_WINDS"},"data":[0,0,0,0,0,0,0,0,0,0,0,0,0,0,0,0,0,0,0,0,0,0,0,0,0,0,0,0,0,0,0,0,0,0,0,0,0,0,0,0,0,0,0,0,0,0,0,0,0,0,0,0,0,0,0,0,0,0,2.8567,2.8567,0,2.8511,2.851,2.851,2.8459,2.8458,2.8458,2.8457,2.8395,2.8394,2.8393,0,0,0,0,0,0,0,0,0,0,0,0,0,2.8628,2.8627,2.8568,2.8567,2.8566,2.8511,2.851,2.851,2.8459,2.8458,2.8458,2.8457,2.8396,2.8394,2.8393,0,0,0,0,0,0,0,0,0,0,0,0,0,2.859,2.8627,2.8568,2.8534,2.8531,2.8511,2.851,2.8509,2.8459,2.8458,2.8457,2.8457,2.8396,2.8394,2.8393,2.84,0,0,2.8388,2.8387,0,0,0,0,0,0,0,0,2.8592,2.8588,2.854,2.8537,2.8533,2.8491,2.8509,2.8473,2.8459,2.8486,2.8457,2.8456,2.8428,2.8423,2.8414,2.8397,2.8395,2.8388,2.8387,2.8386,2.8385,0,0,0,0,0,0,0,2.8595,2.859,2.8545,2.8539,2.8535,2.8521,2.8515,2.8502,2.8462,2.8484,2.848,2.8474,2.8425,2.8416,2.8413,2.8394,2.8388,2.8386,2.8385,2.8384,2.8381,2.8382,0,0,0,0,0,0,2.8603,2.8592,2.8547,2.8543,2.8561,2.8521,2.8514,2.8505,2.8462,2.8455,2.8475,2.8472,2.8419,2.8415,2.841,2.8417,2.8386,2.8384,2.8383,2.838,2.8381,2.8382,0,0,0,0,0,0,2.8605,2.8599,2.8549,2.8567,2.8559,2.8521,2.8512,2.8505,2.8496,2.8456,2.8448,2.8473,2.8419,2.8413,2.8404,2.8414,2.8384,2.8382,2.8379,2.838,2.8381,2.8431,0,0,0,0,0,0,2.8607,2.86,2.8604,2.8567,2.8559,2.8545,2.8512,2.8504,2.8493,2.8489,2.8452,2.8445,2.8417,2.8406,2.8402,2.8412,2.8381,2.8378,2.8379,2.8381,2.8428,2.8434,2.8439,0,0,0,0,0,2.8609,2.8619,2.8604,2.8599,2.8562,2.8545,2.854,2.8509,2.8494,2.8497,2.8472,2.8446,2.8414,2.8406,2.8401,2.841,2.8377,2.8379,2.8381,2.8426,2.8433,2.8439,0,0,0,0,0,0,2.8656,2.8613,2.8597,2.8595,2.8575,2.8537,2.8539,2.8517,2.85,2.8496,2.8457,2.8449,2.8445,2.8426,2.8418,2.8415,2.8392,2.8393,2.8428,2.8434,2.8439,2.8444,2.8379,0,0,0,0,0,2.8666,2.8657,2.862,2.8622,2.8613,2.8578,2.857,2.8548,2.8524,2.8515,2.8489,2.8466,2.845,2.8441,2.8424,2.8425,2.8416,2.8429,2.8434,2.8438,2.844,2.844,2.8445,2.8389,2.8389,2.8388,0,0,2.8687,2.8663,2.8659,2.8631,2.8613,2.8604,2.8571,2.8562,2.8555,2.8513,2.8504,2.8484,2.8455,2.8452,2.8449,2.8436,2.8454,2.8441,2.8445,2.8444,2.8442,2.8448,2.8453,2.839,2.839,2.8389,0,0,2.8721,2.8701,2.8702,2.8684,2.8657,2.8634,2.8634,2.86,2.8586,2.8576,2.8545,2.8535,2.8509,2.8491,2.8478,2.8506,2.8482,2.8501,2.8529,2.8529,2.8534,2.8537,2.8548,2.8553,2.8503,2.8503,2.8503,0,2.875,2.8737,2.8704,2.8699,2.8687,2.865,2.865,2.8634,2.8602,2.8595,2.8581,2.8549,2.8527,2.8519,2.8527,2.8517,2.8516,2.8506,2.8536,2.8539,2.8542,2.8552,2.8556,2.8505,2.8505,2.8505,2.8504,0,2.8774,2.8765,2.8769,2.8742,2.873,2.8727,2.8694,2.8686,2.8665,2.8643,2.8634,2.8607,2.8585,2.8581,2.8559,2.857,2.8563,2.8543,2.8519,2.8551,2.856,2.8563,2.8509,2.8508,2.8507,2.8507,0,0,2.8837,2.8792,2.8794,2.8782,2.8749,2.8741,2.8736,2.8716,2.8711,2.869,2.8685,2.8665,2.8646,2.8632,2.8608,2.8608,2.8633,2.8588,2.8587,2.8598,2.8644,2.8661,2.8666,2.8617,2.8618,2.8618,2.8647,0,2.8866,2.8857,2.8828,2.8828,2.8819,2.8784,2.8779,2.8759,2.8738,2.8727,2.8703,2.869,2.8666,2.8658,2.8656,2.8631,2.8642,2.8628,2.8612,2.8612,2.8622,2.867,2.8687,2.8716,2.865,2.8651,2.8651,0,2.89,2.8884,2.8883,2.8852,2.8847,2.8844,2.8824,2.8814,2.8789,2.8774,2.8759,2.8733,2.8725,2.8702,2.8691,2.8682,2.8673,2.866,2.866,2.8659,2.8635,2.8671,2.8724,2.873,2.8656,2.8656,2.8655,0,2.8947,2.8925,2.8922,2.8912,2.8875,2.8874,2.8858,2.8833,2.8823,2.8805,2.8798,2.8779,2.8768,2.8753,2.8722,2.8708,2.8715,2.8689,2.8702,2.8703,2.8706,2.8706,2.876,2.8698,2.8698,2.8698,2.8698,0,2.8984,2.8985,2.8943,2.8941,2.8941,2.8907,2.8908,2.8889,2.8867,2.886,2.8827,2.8821,2.878,2.8769,2.8745,2.874,2.8735,2.8722,2.8716,2.8726,2.8728,2.8721,2.8718,2.8699,2.8699,2.8699,2.8699,0,2.9038,2.9009,2.9004,2.897,2.8961,2.8963,2.8934,2.893,2.8908,2.89,2.8896,2.886,2.8846,2.8813,2.8789,2.8773,2.8774,2.8762,2.8784,2.878,2.8795,2.8795,2.8847,2.8853,2.8787,2.8787,2.8788,0,2.9064,2.9065,2.9031,2.9025,2.9012,2.9002,2.8992,2.8958,2.895,2.8922,2.8922,2.8905,2.8891,2.8869,2.884,2.8822,2.881,2.883,2.8807,2.8818,2.8812,2.8813,2.8813,2.8835,2.8836,2.8837,2.8837,0,2.9115,2.9101,2.9089,2.9072,2.9062,2.9047,2.903,2.9026,2.8988,2.8979,2.8965,2.8954,2.8931,2.8915,2.8892,2.8875,2.885,2.8845,2.8847,2.8858,2.8871,2.8865,2.8799,2.8844,2.8843,2.8843,2.8842,2.8842,2.9156,2.9155,2.9132,2.912,2.9104,2.9089,2.9085,2.9062,2.905,2.903,2.901,2.8998,2.8974,2.8941,2.8926,2.8915,2.8902,2.8905,2.8906,2.8908,2.8913,2.8872,2.8911,2.891,2.891,2.891,2.891,0,2.9206,2.919,2.9179,2.9157,2.9148,2.9126,2.9106,2.9099,2.909,2.9069,2.9056,2.904,2.9024,2.8995,2.8976,2.8974,2.8962,2.897,2.8971,2.8967,2.8925,2.8925,2.898,2.898,2.898,2.898,2.898,2.898,2.9231,2.9229,2.9213,2.9202,2.9185,2.9175,2.9165,2.9151,2.9135,2.9119,2.9107,2.9088,2.9064,2.9043,2.9028,2.9019,2.9015,2.9027,2.9015,2.8976,2.897,2.8964,2.8964,2.9026,2.9026,2.9058,2.9059,2.9059]}]]